TimeEST,TemperatureF,Dew PointF,Humidity,Sea Level PressureIn,VisibilityMPH,Wind Direction,Wind SpeedMPH,Gust SpeedMPH,PrecipitationIn,Events,Conditions,WindDirDegrees,DateUTC
12:53 AM,30.0,12.0,47,30.30,10.0,NNW,13.8,19.6,N/A,,Clear,330,2013-02-07 05:53:00
1:53 AM,30.0,12.0,47,30.31,10.0,NW,13.8,-,N/A,,Clear,320,2013-02-07 06:53:00
2:53 AM,28.9,10.9,47,30.32,10.0,NW,9.2,-,N/A,,Clear,320,2013-02-07 07:53:00
3:53 AM,28.0,10.9,49,30.34,10.0,NNW,13.8,-,N/A,,Clear,330,2013-02-07 08:53:00
4:53 AM,28.0,12.0,51,30.37,10.0,NNW,11.5,-,N/A,,Clear,330,2013-02-07 09:53:00
5:53 AM,27.0,14.0,58,30.38,10.0,NNW,11.5,-,N/A,,Clear,330,2013-02-07 10:53:00
6:53 AM,28.0,15.1,58,30.41,10.0,North,11.5,-,N/A,,Clear,350,2013-02-07 11:53:00
7:53 AM,28.0,15.1,58,30.44,10.0,North,10.4,-,N/A,,Clear,350,2013-02-07 12:53:00
8:53 AM,30.0,14.0,51,30.46,10.0,NNW,12.7,21.9,N/A,,Clear,340,2013-02-07 13:53:00
9:53 AM,30.0,10.9,45,30.48,10.0,North,15.0,-,N/A,,Clear,350,2013-02-07 14:53:00
10:53 AM,30.0,9.0,41,30.50,10.0,NNW,16.1,-,N/A,,Clear,340,2013-02-07 15:53:00
11:53 AM,28.9,8.1,41,30.50,10.0,NNW,15.0,-,N/A,,Clear,340,2013-02-07 16:53:00
12:53 PM,30.0,10.0,43,30.48,10.0,North,12.7,-,N/A,,Clear,350,2013-02-07 17:53:00
1:53 PM,28.9,10.9,47,30.47,10.0,North,13.8,20.7,N/A,,Clear,360,2013-02-07 18:53:00
2:53 PM,28.9,12.9,51,30.47,10.0,North,12.7,-,N/A,,Clear,360,2013-02-07 19:53:00
3:53 PM,28.0,12.9,53,30.47,10.0,North,13.8,-,N/A,,Clear,10,2013-02-07 20:53:00
4:53 PM,27.0,15.1,61,30.48,10.0,NNE,9.2,-,N/A,,Mostly Cloudy,20,2013-02-07 21:53:00
5:53 PM,26.1,16.0,66,30.49,10.0,North,5.8,-,N/A,,Clear,10,2013-02-07 22:53:00
6:53 PM,27.0,18.0,69,30.50,10.0,Calm,Calm,-,N/A,,Mostly Cloudy,0,2013-02-07 23:53:00
7:45 PM,26.6,19.4,74,30.49,10.0,NNE,3.5,-,N/A,,Overcast,20,2013-02-08 00:45:00
7:53 PM,27.0,19.0,72,30.49,10.0,NNE,4.6,-,N/A,,Overcast,20,2013-02-08 00:53:00
8:53 PM,28.0,19.9,72,30.48,10.0,NE,4.6,-,N/A,,Overcast,40,2013-02-08 01:53:00
9:53 PM,30.0,21.9,72,30.46,10.0,NNE,3.5,-,N/A,,Overcast,30,2013-02-08 02:53:00
10:53 PM,33.1,24.1,70,30.47,10.0,East,8.1,-,N/A,,Overcast,80,2013-02-08 03:53:00
11:53 PM,33.1,25.0,72,30.46,10.0,East,10.4,-,N/A,,Overcast,90,2013-02-08 04:53:00